Location: Brede
(50.9167°N, 0.6000°E)
Time: 03:35:44
(UTC+00:00)

Resurs 1-4 Rocket - Pass Details

Date: 08 August 2020
Orbit: 799 x 814 km, 98.6° (Epoch: 27 September)

Event Time Altitude Azimuth Distance (km) Brightness Sun altitude
Rises 02:44:49 0° 9° (N) 3,338 6.4 -14.3°
Reaches altitude 10° 02:47:20 10° 1° (N) 2,400 5.3 -14.1°
Maximum altitude 02:52:06 35° 297° (WNW) 1,273 3.0 -13.6°
Enters shadow 02:55:29 17° 241° (WSW) 1,922 3.5 -13.2°
